レモン彗星

C/2019 T2 ( Lemmon )

English version
Home page
Updated on March 14, 2022

---------------------------------------------------------------------

・ プロフィール

発見日 2019年10月9日
発見光度 20.6等
発見者 Mt. Lemmon Survey

・ 写真集

・ 軌道要素

Epoch 2022 Jan. 21.0 TT = JDT 2459600.5
T 2021 Apr. 22.32868 TT                                 Rudenko
q   2.6461651            (2000.0)            P               Q
z  +0.0004418      Peri.  239.40286     +0.33365488     -0.86105157
 +/-0.0000004      Node   155.64321     -0.13754795     +0.35825464
e   0.9988309      Incl.  111.48852     -0.93260655     -0.36089308
From 774 observations 2019 Aug. 26-2022 Jan. 11, mean residual 0".7.

・ 星図

・ 光度変化

        m1 = 9.0 + 5 logΔ + 10.0 log r(t + 80)

---------------------------------------------------------------------

軌道要素はM.P.E.C. 2022-C56に掲載されたものです。
星図はステラナビゲータ Ver.10 (アストロアーツ) で作成したものです。
光度グラフはComet for Windowsで作成したものです。

---------------------------------------------------------------------

Copyright(C) Seiichi Yoshida (comet@aerith.net). All rights reserved.